TimeCDT,TemperatureF,Dew PointF,Humidity,Sea Level PressureIn,VisibilityMPH,Wind Direction,Wind SpeedMPH,Gust SpeedMPH,PrecipitationIn,Events,Conditions,WindDirDegrees,DateUTC
12:14 AM,37.4,30.2,75,30.19,10.0,NW,13.8,-,N/A,,Overcast,310,2012-10-05 05:14:00
12:35 AM,35.6,30.2,81,30.19,10.0,NW,13.8,19.6,N/A,,Overcast,310,2012-10-05 05:35:00
12:55 AM,35.6,30.2,81,30.19,10.0,NW,12.7,-,N/A,,Scattered Clouds,310,2012-10-05 05:55:00
1:15 AM,35.6,30.2,81,30.19,10.0,NW,13.8,18.4,N/A,,Clear,310,2012-10-05 06:15:00
1:35 AM,35.6,30.2,81,30.19,10.0,NW,16.1,20.7,N/A,,Mostly Cloudy,310,2012-10-05 06:35:00
1:55 AM,35.6,30.2,81,30.19,10.0,WNW,15.0,-,N/A,,Scattered Clouds,300,2012-10-05 06:55:00
2:14 AM,33.8,30.2,87,30.19,10.0,WNW,13.8,-,N/A,,Clear,300,2012-10-05 07:14:00
2:35 AM,33.8,30.2,87,30.19,10.0,WNW,13.8,-,N/A,,Scattered Clouds,300,2012-10-05 07:35:00
2:55 AM,33.8,30.2,87,30.18,10.0,WNW,11.5,15.0,N/A,,Clear,300,2012-10-05 07:55:00
3:14 AM,33.8,30.2,87,30.18,10.0,WNW,12.7,-,N/A,,Clear,300,2012-10-05 08:14:00
3:35 AM,33.8,28.4,81,30.18,10.0,WNW,13.8,-,N/A,,Clear,300,2012-10-05 08:35:00
3:55 AM,33.8,28.4,81,30.17,10.0,WNW,16.1,-,N/A,,Clear,300,2012-10-05 08:55:00
4:15 AM,33.8,28.4,81,30.17,10.0,WNW,17.3,24.2,N/A,,Clear,300,2012-10-05 09:15:00
4:35 AM,33.8,28.4,81,30.17,10.0,WNW,18.4,23.0,N/A,,Clear,300,2012-10-05 09:35:00
4:54 AM,32.0,28.4,87,30.17,10.0,WNW,17.3,-,N/A,,Clear,300,2012-10-05 09:54:00
5:15 AM,32.0,28.4,87,30.17,10.0,WNW,15.0,19.6,N/A,,Clear,300,2012-10-05 10:15:00
5:35 AM,32.0,28.4,87,30.16,10.0,WNW,16.1,-,N/A,,Clear,300,2012-10-05 10:35:00
5:55 AM,32.0,28.4,87,30.17,10.0,WNW,17.3,-,N/A,,Clear,300,2012-10-05 10:55:00
6:15 AM,32.0,28.4,87,30.17,10.0,WNW,19.6,-,N/A,,Clear,300,2012-10-05 11:15:00
6:35 AM,30.2,28.4,93,30.17,10.0,WNW,17.3,21.9,N/A,,Clear,300,2012-10-05 11:35:00
6:54 AM,30.2,28.4,93,30.17,10.0,WNW,17.3,20.7,N/A,,Clear,300,2012-10-05 11:54:00
7:15 AM,30.2,28.4,93,30.17,10.0,WNW,15.0,23.0,N/A,,Clear,300,2012-10-05 12:15:00
7:35 AM,30.2,26.6,86,30.17,10.0,WNW,17.3,-,N/A,,Clear,300,2012-10-05 12:35:00
7:54 AM,30.2,28.4,93,30.17,10.0,WNW,17.3,-,N/A,,Clear,300,2012-10-05 12:54:00
8:15 AM,30.2,28.4,93,30.18,10.0,WNW,18.4,26.5,N/A,,Clear,300,2012-10-05 13:15:00
8:34 AM,32.0,28.4,87,30.18,10.0,WNW,19.6,24.2,N/A,,Clear,300,2012-10-05 13:34:00
8:55 AM,33.8,28.4,81,30.18,10.0,NW,23.0,26.5,N/A,,Scattered Clouds,310,2012-10-05 13:55:00
9:15 AM,33.8,28.4,81,30.18,10.0,NW,24.2,29.9,N/A,,Scattered Clouds,310,2012-10-05 14:15:00
9:34 AM,33.8,28.4,81,30.19,10.0,NW,21.9,27.6,N/A,,Mostly Cloudy,310,2012-10-05 14:34:00
9:55 AM,35.6,30.2,81,30.19,10.0,NW,20.7,27.6,N/A,,Mostly Cloudy,310,2012-10-05 14:55:00
10:15 AM,35.6,30.2,81,30.20,10.0,NW,20.7,27.6,N/A,,Scattered Clouds,320,2012-10-05 15:15:00
10:34 AM,37.4,30.2,75,30.20,10.0,NW,21.9,29.9,N/A,,Mostly Cloudy,310,2012-10-05 15:34:00
10:55 AM,37.4,30.2,75,30.20,10.0,NW,24.2,28.8,N/A,,Overcast,310,2012-10-05 15:55:00
11:15 AM,37.4,30.2,75,30.20,10.0,NW,23.0,32.2,N/A,,Overcast,320,2012-10-05 16:15:00
11:35 AM,37.4,30.2,75,30.20,10.0,NW,25.3,32.2,N/A,,Overcast,320,2012-10-05 16:35:00
12:15 PM,39.2,30.2,70,30.21,10.0,NNW,23.0,33.4,N/A,,Overcast,330,2012-10-05 17:15:00
12:35 PM,39.2,30.2,70,30.20,10.0,NNW,24.2,33.4,N/A,,Overcast,330,2012-10-05 17:35:00
12:55 PM,39.2,30.2,70,30.21,10.0,NW,20.7,34.5,N/A,,Mostly Cloudy,320,2012-10-05 17:55:00
1:35 PM,41.0,30.2,65,30.20,10.0,NNW,28.8,34.5,N/A,,Mostly Cloudy,330,2012-10-05 18:35:00
1:55 PM,41.0,32.0,70,30.20,10.0,NNW,24.2,34.5,N/A,,Mostly Cloudy,330,2012-10-05 18:55:00
2:14 PM,39.2,32.0,75,30.20,10.0,NNW,24.2,31.1,N/A,,Mostly Cloudy,330,2012-10-05 19:14:00
2:35 PM,39.2,33.8,81,30.19,10.0,NW,20.7,28.8,N/A,,Light Drizzle,320,2012-10-05 19:35:00
2:55 PM,39.2,32.0,75,30.19,10.0,NNW,24.2,33.4,N/A,,Overcast,330,2012-10-05 19:55:00
3:15 PM,39.2,32.0,75,30.20,10.0,NNW,20.7,-,N/A,,Overcast,330,2012-10-05 20:15:00
3:35 PM,39.2,35.6,87,30.20,10.0,NNW,18.4,21.9,N/A,,Overcast,340,2012-10-05 20:35:00
3:55 PM,39.2,33.8,81,30.20,7.0,NNW,19.6,-,N/A,,Overcast,330,2012-10-05 20:55:00
4:15 PM,37.4,35.6,93,30.21,10.0,North,20.7,26.5,N/A,,Light Drizzle,350,2012-10-05 21:15:00
4:35 PM,37.4,33.8,87,30.21,10.0,NNW,23.0,-,N/A,,Mostly Cloudy,340,2012-10-05 21:35:00
4:54 PM,35.6,33.8,93,30.21,5.0,NNW,21.9,28.8,N/A,Rain,Rain,340,2012-10-05 21:54:00
5:15 PM,35.6,35.6,100,30.22,7.0,NNW,24.2,29.9,N/A,Rain,Light Rain,340,2012-10-05 22:15:00
5:34 PM,37.4,35.6,93,30.22,10.0,NNW,17.3,-,N/A,,Mostly Cloudy,340,2012-10-05 22:34:00
5:55 PM,37.4,33.8,87,30.22,7.0,NNW,17.3,21.9,N/A,,Mostly Cloudy,330,2012-10-05 22:55:00
6:15 PM,35.6,33.8,93,30.23,10.0,NNW,17.3,20.7,N/A,,Scattered Clouds,330,2012-10-05 23:15:00
6:34 PM,37.4,33.8,87,30.23,10.0,NNW,16.1,-,N/A,,Scattered Clouds,340,2012-10-05 23:34:00
6:55 PM,37.4,33.8,87,30.23,10.0,NNW,15.0,20.7,N/A,,Scattered Clouds,330,2012-10-05 23:55:00
7:15 PM,35.6,33.8,93,30.24,10.0,NNW,19.6,26.5,N/A,Rain,Light Rain,340,2012-10-06 00:15:00
7:35 PM,35.6,33.8,93,30.24,10.0,NNW,17.3,-,N/A,,Overcast,330,2012-10-06 00:35:00
7:55 PM,35.6,33.8,93,30.25,10.0,NNW,15.0,-,N/A,,Overcast,330,2012-10-06 00:55:00
8:15 PM,35.6,33.8,93,30.25,10.0,NNW,16.1,-,N/A,Rain,Rain,330,2012-10-06 01:15:00
8:35 PM,35.6,33.8,93,30.26,10.0,NW,13.8,-,N/A,Rain,Rain,320,2012-10-06 01:35:00
8:55 PM,35.6,33.8,93,30.26,5.0,NNW,13.8,-,N/A,Snow,Light Snow,330,2012-10-06 01:55:00
9:14 PM,35.6,33.8,93,30.26,10.0,NNW,17.3,23.0,N/A,Rain,Light Rain,330,2012-10-06 02:14:00
9:35 PM,35.6,33.8,93,30.27,10.0,NNW,13.8,-,N/A,Rain,Light Rain,340,2012-10-06 02:35:00
9:55 PM,35.6,33.8,93,30.27,10.0,NNW,13.8,-,N/A,Rain,Light Rain,340,2012-10-06 02:55:00
10:35 PM,35.6,33.8,93,30.27,10.0,NNW,12.7,-,N/A,Rain,Rain,340,2012-10-06 03:35:00
10:55 PM,35.6,33.8,93,30.27,10.0,North,15.0,-,N/A,Rain,Light Rain,350,2012-10-06 03:55:00
11:35 PM,33.8,33.8,100,30.28,5.0,NNW,11.5,-,N/A,,Overcast,340,2012-10-06 04:35:00
11:55 PM,33.8,33.8,100,30.28,10.0,NNW,12.7,-,N/A,Rain,Light Rain,340,2012-10-06 04:55:00